This demonstration page uses our WeatherBlox Daily Observations layout. Learn more.

Left ArrowRight Arrow

41.86663, -103.66717

Hourly Observations for March 11, 2018

Temp ( °F °C ) Dew Point ( °F °C ) Humidity (%) Winds ( mph kmh ) Pressure ( in mb ) Visibility ( mi km ) Precip ( " mm )
12:53 am 00:53 Clear 20 -6.7 17 -8.3 89 89 NW 7 11 30.32 1027 10 16 N/A
1:53 am 01:53 Clear 21 -6.1 17 -8.3 85 85 WNW 9 15 30.31 1027 10 16 N/A
3:53 am 03:53 Clear 20 -6.7 16 -8.9 85 85 NW 7 11 30.34 1027 10 16 N/A
4:53 am 04:53 Clear 18 -7.8 15 -9.4 88 88 NNW 3 6 30.36 1028 10 16 N/A
5:53 am 05:53 Clear 16 -8.9 12 -11.1 84 84 NW 10 17 30.38 1029 10 16 N/A
6:53 am 06:53 Clear 17 -8.3 13 -10.6 84 84 WNW 9 15 30.41 1030 10 16 N/A
7:53 am 07:53 Sunny 20 -6.7 16 -8.9 85 85 NW 6 9 30.43 1031 10 16 N/A
8:53 am 08:53 Sunny 27 -2.8 18 -7.8 69 69 WNW 7 11 30.43 1030 10 16 N/A
9:53 am 09:53 Sunny 33 0.6 17 -8.3 52 52 W 9 15 30.42 1030 10 16 N/A
10:53 am 10:53 Sunny 37 2.8 14 -10 39 39 WNW 8 13 30.40 1030 10 16 N/A
11:53 am 11:53 Sunny 41 5 10 -12.2 28 28 WNW 9 15 30.40 1030 10 16 N/A
12:53 pm 12:53 Sunny 43 6.1 10 -12.2 26 26 WSW 5 7 30.39 1029 10 16 N/A
1:53 pm 13:53 Sunny 45 7.2 9 -12.8 23 23 S 6 9 30.37 1028 10 16 N/A
2:53 pm 14:53 Sunny 48 8.9 4 -15.6 16 16 ESE 6 9 30.34 1027 10 16 N/A
3:53 pm 15:53 Sunny 48 8.9 3 -16.1 15 15 N N/A 30.35 1028 10 16 N/A
4:53 pm 16:53 Sunny 50 10 N/A 12 12 WNW 6 9 30.35 1028 10 16 N/A
5:53 pm 17:53 Sunny 49 9.4 2 -16.7 14 14 S 3 6 30.35 1028 10 16 N/A
6:53 pm 18:53 Sunny 44 6.7 7 -13.9 22 22 SSE 6 9 30.38 1029 10 16 N/A
7:53 pm 19:53 Clear 32 undefined 11 -11.7 41 41 E 7 11 30.42 1030 10 16 N/A
8:53 pm 20:53 Clear 32 undefined 15 -9.4 50 50 ENE 9 15 30.41 1030 10 16 N/A
9:53 pm 21:53 Clear 29 -1.7 15 -9.4 56 56 SE 5 7 30.42 1030 10 16 N/A
10:53 pm 22:53 Clear 26 -3.3 15 -9.4 63 63 E 8 13 30.42 1030 10 16 N/A
11:53 pm 23:53 Clear 24 -4.4 15 -9.4 68 68 E 7 11 30.42 1030 10 16 N/A

Powered by AerisWeather